Location: Waco, TX
(31.5480°N, 97.1670°W)
Time: 23:30:12
(UTC-06:00)

ISS - Pass Details

Date: 11 January 2018
Orbit: 402 x 407 km, 51.6° (Epoch: 18 January)

Event Time Altitude Azimuth Distance (km) Brightness Sun altitude
Rises 07:58:50 0° 320° (NW) 2,325 -0.6 4.8°
Reaches altitude 10° 08:00:58 10° 327° (NNW) 1,463 -1.5 5.2°
Maximum altitude 08:04:09 46° 42° (NE) 550 -2.9 5.8°
Drops below altitude 10° 08:07:19 10° 118° (ESE) 1,458 2.3 6.4°
Sets 08:09:26 0° 124° (SE) 2,315 2.7 6.8°
